Time,TemperatureF,DewpointF,PressureIn,WindDirection,WindDirectionDegrees,WindSpeedMPH,WindSpeedGustMPH,Humidity,HourlyPrecipIn,Conditions,Clouds,dailyrainin,SolarRadiationWatts/m^2,SoftwareType,DateUTC
2013-04-21 00:03:00,56.0,55.0,-100.00,NE,50,2.0,-999.0,95,0.00,,,-99.99,0.000000,,2013-04-21 04:03:00,
2013-04-21 00:12:00,56.0,55.0,-100.00,NE,47,1.0,-999.0,95,0.00,,,-99.99,0.000000,,2013-04-21 04:12:00,
2013-04-21 00:23:00,56.0,55.0,-100.00,NE,47,1.0,-999.0,95,0.00,,,-99.99,0.000000,,2013-04-21 04:23:00,
2013-04-21 00:33:00,56.0,55.0,-100.00,North,9,2.0,-999.0,95,0.00,,,-99.99,0.000000,,2013-04-21 04:33:00,
2013-04-21 00:42:00,56.0,55.0,-100.00,NNE,14,1.0,-999.0,95,0.00,,,-99.99,0.000000,,2013-04-21 04:42:00,
2013-04-21 00:53:00,56.0,55.0,-100.00,NNE,14,1.0,-999.0,95,0.00,,,-99.99,0.000000,,2013-04-21 04:53:00,
2013-04-21 01:02:00,56.0,55.0,-100.00,NE,39,1.0,-999.0,95,0.00,,,-99.99,0.000000,,2013-04-21 05:02:00,
2013-04-21 01:12:00,57.0,55.0,-100.00,NNE,28,1.0,-999.0,95,0.00,,,-99.99,0.000000,,2013-04-21 05:12:00,
2013-04-21 01:22:00,57.0,55.0,-100.00,NNE,28,1.0,-999.0,95,0.00,,,-99.99,0.000000,,2013-04-21 05:22:00,
2013-04-21 01:32:00,57.0,55.0,-100.00,NNW,340,1.0,-999.0,95,0.00,,,-99.99,0.000000,,2013-04-21 05:32:00,
2013-04-21 01:42:00,56.0,55.0,-100.00,NNW,348,1.0,-999.0,95,0.00,,,-99.99,0.000000,,2013-04-21 05:42:00,
2013-04-21 01:52:00,56.0,55.0,-100.00,NNW,348,1.0,-999.0,95,0.00,,,-99.99,0.000000,,2013-04-21 05:52:00,
2013-04-21 02:01:00,56.0,55.0,-100.00,NNW,342,1.0,-999.0,95,0.00,,,-99.99,0.000000,,2013-04-21 06:01:00,
2013-04-21 02:12:00,56.0,55.0,-100.00,ESE,121,1.0,-999.0,95,0.00,,,-99.99,0.000000,,2013-04-21 06:12:00,
2013-04-21 02:22:00,56.0,55.0,-100.00,ESE,121,1.0,-999.0,95,0.00,,,-99.99,0.000000,,2013-04-21 06:22:00,
2013-04-21 02:32:00,56.0,55.0,-100.00,ENE,65,1.0,-999.0,95,0.00,,,-99.99,0.000000,,2013-04-21 06:32:00,
2013-04-21 02:42:00,56.0,55.0,-100.00,ENE,65,1.0,-999.0,95,0.00,,,-99.99,0.000000,,2013-04-21 06:42:00,
2013-04-21 02:52:00,57.0,55.0,-100.00,ENE,76,1.0,-999.0,95,0.00,,,-99.99,0.000000,,2013-04-21 06:52:00,
2013-04-21 03:01:00,57.0,55.0,-100.00,North,8,2.0,-999.0,95,0.00,,,-99.99,0.000000,,2013-04-21 07:01:00,
2013-04-21 03:12:00,57.0,55.0,-100.00,NW,323,1.0,-999.0,95,0.00,,,-99.99,0.000000,,2013-04-21 07:12:00,
2013-04-21 03:22:00,57.0,55.0,-100.00,NW,323,1.0,-999.0,95,0.00,,,-99.99,0.000000,,2013-04-21 07:22:00,
2013-04-21 03:32:00,57.0,56.0,-100.00,West,272,1.0,-999.0,95,0.00,,,-99.99,0.000000,,2013-04-21 07:32:00,
2013-04-21 03:42:00,57.0,56.0,-100.00,West,281,1.0,-999.0,95,0.00,,,-99.99,0.000000,,2013-04-21 07:42:00,
2013-04-21 03:52:00,57.0,56.0,-100.00,West,281,1.0,-999.0,95,0.00,,,-99.99,0.000000,,2013-04-21 07:52:00,
2013-04-21 04:01:00,57.0,56.0,-100.00,WSW,247,1.0,-999.0,95,0.00,,,-99.99,0.000000,,2013-04-21 08:01:00,
2013-04-21 04:12:00,57.0,56.0,-100.00,NNE,18,2.0,-999.0,95,0.00,,,-99.99,0.000000,,2013-04-21 08:12:00,
2013-04-21 04:21:00,57.0,56.0,-100.00,NNE,18,2.0,-999.0,95,0.00,,,-99.99,0.000000,,2013-04-21 08:21:00,
2013-04-21 04:32:00,57.0,56.0,-100.00,North,11,2.0,-999.0,95,0.00,,,-99.99,0.000000,,2013-04-21 08:32:00,
2013-04-21 04:42:00,57.0,56.0,-100.00,NE,43,2.0,-999.0,95,0.00,,,-99.99,0.000000,,2013-04-21 08:42:00,
2013-04-21 04:52:00,57.0,56.0,-100.00,NE,43,2.0,-999.0,95,0.00,,,-99.99,0.000000,,2013-04-21 08:52:00,
2013-04-21 05:02:00,58.0,56.0,-100.00,NE,49,2.0,-999.0,95,0.00,,,-99.99,0.000000,,2013-04-21 09:02:00,
2013-04-21 05:12:00,58.0,57.0,-100.00,NNE,22,2.0,-999.0,95,0.00,,,-99.99,0.000000,,2013-04-21 09:12:00,
2013-04-21 05:21:00,58.0,57.0,-100.00,NNE,22,2.0,-999.0,95,0.00,,,-99.99,0.000000,,2013-04-21 09:21:00,
2013-04-21 05:32:00,58.0,57.0,-100.00,NE,39,3.0,-999.0,95,0.00,,,-99.99,0.000000,,2013-04-21 09:32:00,
2013-04-21 05:43:00,58.0,57.0,-100.00,NNE,31,2.0,-999.0,95,0.00,,,-99.99,0.000000,,2013-04-21 09:43:00,
2013-04-21 05:53:00,58.0,57.0,-100.00,NNE,31,2.0,-999.0,95,0.00,,,-99.99,0.000000,,2013-04-21 09:53:00,
2013-04-21 06:03:00,59.0,57.0,-100.00,NE,47,2.0,-999.0,95,0.00,,,-99.99,0.000000,,2013-04-21 10:03:00,
2013-04-21 06:12:00,59.0,57.0,-100.00,NNE,33,3.0,-999.0,95,0.00,,,-99.99,0.000000,,2013-04-21 10:12:00,
2013-04-21 06:22:00,59.0,57.0,-100.00,NNE,33,3.0,-999.0,95,0.00,,,-99.99,0.000000,,2013-04-21 10:22:00,
2013-04-21 06:32:00,59.0,58.0,-100.00,NE,39,3.0,-999.0,94,0.00,,,-99.99,0.000000,,2013-04-21 10:32:00,
2013-04-21 06:42:00,59.0,58.0,-100.00,NE,48,3.0,-999.0,94,0.00,,,-99.99,0.000000,,2013-04-21 10:42:00,
2013-04-21 06:52:00,59.0,58.0,-100.00,NE,48,3.0,-999.0,94,0.00,,,-99.99,0.000000,,2013-04-21 10:52:00,
2013-04-21 07:02:00,60.0,58.0,-100.00,NE,45,3.0,-999.0,94,0.00,,,-99.99,0.000000,,2013-04-21 11:02:00,
2013-04-21 07:12:00,60.0,58.0,-100.00,NE,45,3.0,-999.0,94,0.00,,,-99.99,0.000000,,2013-04-21 11:12:00,
2013-04-21 07:22:00,60.0,58.0,-100.00,NE,47,3.0,-999.0,93,0.00,,,-99.99,0.500000,,2013-04-21 11:22:00,
2013-04-21 07:34:00,60.0,58.0,-100.00,NE,47,3.0,-999.0,93,0.00,,,-99.99,0.500000,,2013-04-21 11:34:00,
2013-04-21 07:42:00,61.0,59.0,-100.00,NE,39,3.0,-999.0,93,0.00,,,-99.99,8.600000,,2013-04-21 11:42:00,
2013-04-21 07:52:00,61.0,59.0,-100.00,NE,39,3.0,-999.0,93,0.00,,,-99.99,8.600000,,2013-04-21 11:52:00,
2013-04-21 08:03:00,61.0,59.0,-100.00,NE,48,3.0,-999.0,92,0.00,,,-99.99,25.500000,,2013-04-21 12:03:00,
2013-04-21 08:12:00,61.0,59.0,-100.00,NE,52,4.0,-999.0,92,0.00,,,-99.99,48.599998,,2013-04-21 12:12:00,
2013-04-21 08:22:00,61.0,59.0,-100.00,NE,52,4.0,-999.0,92,0.00,,,-99.99,48.599998,,2013-04-21 12:22:00,
2013-04-21 08:32:00,62.0,59.0,-100.00,NE,50,4.0,-999.0,91,0.00,,,-99.99,81.400002,,2013-04-21 12:32:00,
2013-04-21 08:42:00,63.0,60.0,-100.00,NE,49,5.0,-999.0,89,0.00,,,-99.99,101.099998,,2013-04-21 12:42:00,
2013-04-21 08:52:00,63.0,60.0,-100.00,NE,49,5.0,-999.0,89,0.00,,,-99.99,101.099998,,2013-04-21 12:52:00,
2013-04-21 09:01:00,63.0,60.0,-100.00,NE,52,5.0,-999.0,89,0.00,,,-99.99,96.099998,,2013-04-21 13:01:00,
2013-04-21 09:12:00,64.0,60.0,-100.00,NE,49,4.0,-999.0,89,0.00,,,-99.99,132.899994,,2013-04-21 13:12:00,
2013-04-21 09:21:00,64.0,60.0,-100.00,NE,49,4.0,-999.0,89,0.00,,,-99.99,132.899994,,2013-04-21 13:21:00,
2013-04-21 09:32:00,66.0,62.0,-100.00,ENE,57,5.0,-999.0,87,0.00,,,-99.99,415.299988,,2013-04-21 13:32:00,
2013-04-21 09:42:00,67.0,63.0,-100.00,ENE,59,6.0,-999.0,84,0.00,,,-99.99,495.100006,,2013-04-21 13:42:00,
2013-04-21 09:52:00,67.0,63.0,-100.00,ENE,59,6.0,-999.0,84,0.00,,,-99.99,495.100006,,2013-04-21 13:52:00,
2013-04-21 10:02:00,68.0,63.0,-100.00,ENE,61,7.0,-999.0,83,0.00,,,-99.99,485.500000,,2013-04-21 14:02:00,
2013-04-21 10:11:00,69.0,64.0,-100.00,ENE,67,7.0,-999.0,83,0.00,,,-99.99,351.899994,,2013-04-21 14:11:00,
2013-04-21 10:21:00,69.0,64.0,-100.00,ENE,67,7.0,-999.0,83,0.00,,,-99.99,351.899994,,2013-04-21 14:21:00,
2013-04-21 10:32:00,70.0,65.0,-100.00,ENE,63,8.0,-999.0,83,0.00,,,-99.99,356.899994,,2013-04-21 14:32:00,
2013-04-21 10:42:00,71.0,65.0,-100.00,ENE,62,8.0,-999.0,82,0.00,,,-99.99,400.799988,,2013-04-21 14:42:00,
2013-04-21 10:52:00,71.0,65.0,-100.00,ENE,62,8.0,-999.0,82,0.00,,,-99.99,400.799988,,2013-04-21 14:52:00,
2013-04-21 11:02:00,71.0,65.0,-100.00,ENE,63,7.0,-999.0,82,0.00,,,-99.99,286.399994,,2013-04-21 15:02:00,
2013-04-21 11:11:00,71.0,65.0,-100.00,ENE,63,7.0,-999.0,82,0.00,,,-99.99,286.399994,,2013-04-21 15:11:00,
2013-04-21 11:22:00,72.0,66.0,-100.00,ENE,60,7.0,-999.0,81,0.00,,,-99.99,479.899994,,2013-04-21 15:22:00,
2013-04-21 11:33:00,73.0,66.0,-100.00,ENE,59,7.0,-999.0,79,0.00,,,-99.99,486.100006,,2013-04-21 15:33:00,
2013-04-21 11:43:00,72.0,66.0,-100.00,ENE,63,7.0,-999.0,81,0.00,,,-99.99,211.899994,,2013-04-21 15:43:00,
2013-04-21 11:53:00,72.0,66.0,-100.00,ENE,63,7.0,-999.0,81,0.00,,,-99.99,211.899994,,2013-04-21 15:53:00,
2013-04-21 12:03:00,72.0,66.0,-100.00,NE,50,6.0,-999.0,81,0.00,,,-99.99,273.899994,,2013-04-21 16:03:00,
2013-04-21 12:13:00,73.0,66.0,-100.00,NE,54,5.0,-999.0,80,0.00,,,-99.99,343.100006,,2013-04-21 16:13:00,
2013-04-21 12:23:00,73.0,66.0,-100.00,NE,54,5.0,-999.0,80,0.00,,,-99.99,343.100006,,2013-04-21 16:23:00,
2013-04-21 12:33:00,73.0,66.0,-100.00,NE,50,5.0,-999.0,80,0.00,,,-99.99,201.100006,,2013-04-21 16:33:00,
2013-04-21 12:42:00,73.0,66.0,-100.00,NE,50,5.0,-999.0,80,0.00,,,-99.99,201.100006,,2013-04-21 16:42:00,
2013-04-21 12:53:00,73.0,66.0,-100.00,NE,50,5.0,-999.0,80,0.00,,,-99.99,201.100006,,2013-04-21 16:53:00,
2013-04-21 13:02:00,73.0,66.0,-100.00,NE,51,5.0,-999.0,81,0.00,,,-99.99,241.199997,,2013-04-21 17:02:00,
2013-04-21 13:12:00,73.0,67.0,-100.00,NE,38,4.0,-999.0,82,0.00,,,-99.99,204.500000,,2013-04-21 17:12:00,
2013-04-21 13:23:00,73.0,67.0,-100.00,NE,38,4.0,-999.0,82,0.00,,,-99.99,204.500000,,2013-04-21 17:23:00,
2013-04-21 13:32:00,73.0,67.0,-100.00,NNE,33,4.0,-999.0,81,0.00,,,-99.99,293.000000,,2013-04-21 17:32:00,
2013-04-21 13:42:00,73.0,67.0,-100.00,NNE,33,4.0,-999.0,81,0.00,,,-99.99,293.000000,,2013-04-21 17:42:00,
2013-04-21 13:52:00,73.0,67.0,-100.00,NNE,32,5.0,-999.0,80,0.00,,,-99.99,278.000000,,2013-04-21 17:52:00,
2013-04-21 14:02:00,73.0,67.0,-100.00,NE,41,3.0,-999.0,81,0.00,,,-99.99,213.600006,,2013-04-21 18:02:00,
2013-04-21 14:11:00,73.0,67.0,-100.00,NE,46,4.0,-999.0,82,0.00,,,-99.99,164.399994,,2013-04-21 18:11:00,
2013-04-21 14:22:00,73.0,67.0,-100.00,NE,46,4.0,-999.0,82,0.00,,,-99.99,164.399994,,2013-04-21 18:22:00,
2013-04-21 14:32:00,73.0,67.0,-100.00,NE,38,4.0,-999.0,82,0.00,,,-99.99,183.199997,,2013-04-21 18:32:00,
2013-04-21 14:42:00,74.0,67.0,-100.00,NE,41,4.0,-999.0,81,0.00,,,-99.99,313.100006,,2013-04-21 18:42:00,
2013-04-21 14:52:00,74.0,67.0,-100.00,NE,41,4.0,-999.0,81,0.00,,,-99.99,313.100006,,2013-04-21 18:52:00,
2013-04-21 15:02:00,75.0,68.0,-100.00,NNE,17,3.0,-999.0,79,0.00,,,-99.99,450.899994,,2013-04-21 19:02:00,
2013-04-21 15:12:00,75.0,68.0,-100.00,NNE,30,5.0,-999.0,78,0.00,,,-99.99,416.500000,,2013-04-21 19:12:00,
2013-04-21 15:22:00,75.0,68.0,-100.00,NNE,30,5.0,-999.0,78,0.00,,,-99.99,416.500000,,2013-04-21 19:22:00,
2013-04-21 15:32:00,74.0,67.0,-100.00,NNE,19,4.0,-999.0,79,0.00,,,-99.99,256.299988,,2013-04-21 19:32:00,
2013-04-21 15:42:00,74.0,67.0,-100.00,NE,34,3.0,-999.0,80,0.00,,,-99.99,277.600006,,2013-04-21 19:42:00,
2013-04-21 15:52:00,74.0,67.0,-100.00,NE,34,3.0,-999.0,80,0.00,,,-99.99,277.600006,,2013-04-21 19:52:00,
2013-04-21 16:02:00,73.0,67.0,-100.00,NNE,33,4.0,-999.0,80,0.00,,,-99.99,259.799988,,2013-04-21 20:02:00,
2013-04-21 16:11:00,74.0,67.0,-100.00,NE,39,5.0,-999.0,79,0.00,,,-99.99,350.000000,,2013-04-21 20:11:00,
2013-04-21 16:22:00,74.0,67.0,-100.00,NE,39,5.0,-999.0,79,0.00,,,-99.99,350.000000,,2013-04-21 20:22:00,
2013-04-21 16:32:00,73.0,67.0,-100.00,NE,41,6.0,-999.0,80,0.00,,,-99.99,299.399994,,2013-04-21 20:32:00,
2013-04-21 16:42:00,73.0,67.0,-100.00,NE,42,5.0,-999.0,80,0.00,,,-99.99,202.600006,,2013-04-21 20:42:00,
2013-04-21 16:52:00,73.0,67.0,-100.00,NE,42,5.0,-999.0,80,0.00,,,-99.99,202.600006,,2013-04-21 20:52:00,
2013-04-21 17:02:00,73.0,67.0,-100.00,NE,42,5.0,-999.0,80,0.00,,,-99.99,208.699997,,2013-04-21 21:02:00,
2013-04-21 17:12:00,73.0,67.0,-100.00,NE,42,5.0,-999.0,80,0.00,,,-99.99,208.699997,,2013-04-21 21:12:00,
2013-04-21 17:22:00,73.0,67.0,-100.00,NE,38,3.0,-999.0,80,0.00,,,-99.99,137.300003,,2013-04-21 21:22:00,
2013-04-21 17:33:00,73.0,67.0,-100.00,NE,41,4.0,-999.0,81,0.00,,,-99.99,116.599998,,2013-04-21 21:33:00,
2013-04-21 17:43:00,72.0,66.0,-100.00,NE,38,4.0,-999.0,81,0.00,,,-99.99,77.199997,,2013-04-21 21:43:00,
2013-04-21 17:53:00,72.0,66.0,-100.00,NE,38,4.0,-999.0,81,0.00,,,-99.99,77.199997,,2013-04-21 21:53:00,
2013-04-21 18:03:00,72.0,66.0,-100.00,NE,37,3.0,-999.0,82,0.00,,,-99.99,84.500000,,2013-04-21 22:03:00,
2013-04-21 18:12:00,71.0,66.0,-100.00,NNE,22,3.0,-999.0,82,0.00,,,-99.99,77.400002,,2013-04-21 22:12:00,
2013-04-21 18:22:00,71.0,66.0,-100.00,NNE,22,3.0,-999.0,82,0.00,,,-99.99,77.400002,,2013-04-21 22:22:00,
2013-04-21 18:33:00,71.0,66.0,-100.00,NNE,21,3.0,-999.0,83,0.00,,,-99.99,33.900002,,2013-04-21 22:33:00,
2013-04-21 18:43:00,70.0,66.0,-100.00,NE,43,3.0,-999.0,85,0.00,,,-99.99,15.300000,,2013-04-21 22:43:00,
2013-04-21 18:53:00,70.0,66.0,-100.00,NE,43,3.0,-999.0,85,0.00,,,-99.99,15.300000,,2013-04-21 22:53:00,
2013-04-21 19:02:00,70.0,66.0,-100.00,NE,44,3.0,-999.0,86,0.00,,,-99.99,16.799999,,2013-04-21 23:02:00,
2013-04-21 19:12:00,69.0,65.0,-100.00,NE,38,4.0,-999.0,87,0.00,,,-99.99,6.900000,,2013-04-21 23:12:00,
2013-04-21 19:22:00,69.0,65.0,-100.00,NE,38,4.0,-999.0,87,0.00,,,-99.99,6.900000,,2013-04-21 23:22:00,
2013-04-21 19:32:00,69.0,65.0,-100.00,NE,38,3.0,-999.0,88,0.00,,,-99.99,8.300000,,2013-04-21 23:32:00,
2013-04-21 19:42:00,69.0,65.0,-100.00,NE,38,3.0,-999.0,88,0.00,,,-99.99,8.300000,,2013-04-21 23:42:00,
2013-04-21 19:52:00,68.0,65.0,-100.00,NE,36,3.0,-999.0,91,0.00,,,-99.99,5.400000,,2013-04-21 23:52:00,
2013-04-21 20:01:00,68.0,65.0,-100.00,NNE,28,3.0,-999.0,92,0.00,,,-99.99,1.400000,,2013-04-22 00:01:00,
2013-04-21 20:11:00,67.0,65.0,-100.00,NNE,29,3.0,-999.0,92,0.00,,,-99.99,0.100000,,2013-04-22 00:11:00,
2013-04-21 20:22:00,67.0,65.0,-100.00,NNE,29,3.0,-999.0,92,0.00,,,-99.99,0.100000,,2013-04-22 00:22:00,
2013-04-21 20:32:00,67.0,65.0,-100.00,NNW,346,3.0,-999.0,93,0.03,,,-99.99,0.000000,,2013-04-22 00:32:00,
2013-04-21 20:42:00,67.0,65.0,-100.00,West,276,2.0,-999.0,94,0.03,,,-99.99,0.000000,,2013-04-22 00:42:00,
2013-04-21 20:52:00,67.0,65.0,-100.00,West,276,2.0,-999.0,94,0.03,,,-99.99,0.000000,,2013-04-22 00:52:00,
2013-04-21 21:01:00,67.0,65.0,-100.00,West,276,2.0,-999.0,94,0.03,,,-99.99,0.000000,,2013-04-22 01:01:00,
2013-04-21 21:12:00,67.0,65.0,-100.00,WNW,285,2.0,-999.0,94,0.11,,,-99.99,0.000000,,2013-04-22 01:12:00,
2013-04-21 21:21:00,66.0,65.0,-100.00,NW,317,3.0,-999.0,95,0.49,,,-99.99,0.000000,,2013-04-22 01:21:00,
2013-04-21 21:32:00,65.0,64.0,-100.00,NNE,13,3.0,-999.0,95,0.52,,,-99.99,0.000000,,2013-04-22 01:32:00,
2013-04-21 21:42:00,65.0,64.0,-100.00,NE,51,6.0,-999.0,95,0.82,,,-99.99,0.000000,,2013-04-22 01:42:00,
2013-04-21 21:52:00,65.0,64.0,-100.00,NE,51,6.0,-999.0,95,0.82,,,-99.99,0.000000,,2013-04-22 01:52:00,
2013-04-21 22:02:00,65.0,64.0,-100.00,NE,49,5.0,-999.0,95,0.19,,,-99.99,0.000000,,2013-04-22 02:02:00,
2013-04-21 22:12:00,65.0,64.0,-100.00,NE,42,5.0,-999.0,96,0.11,,,-99.99,0.000000,,2013-04-22 02:12:00,
2013-04-21 22:21:00,65.0,64.0,-100.00,NE,42,5.0,-999.0,96,0.11,,,-99.99,0.000000,,2013-04-22 02:21:00,
2013-04-21 22:32:00,65.0,64.0,-100.00,NE,53,6.0,-999.0,96,0.00,,,-99.99,0.000000,,2013-04-22 02:32:00,
2013-04-21 22:42:00,65.0,64.0,-100.00,NE,49,5.0,-999.0,96,0.00,,,-99.99,0.000000,,2013-04-22 02:42:00,
2013-04-21 22:52:00,65.0,64.0,-100.00,NE,49,5.0,-999.0,96,0.00,,,-99.99,0.000000,,2013-04-22 02:52:00,
2013-04-21 23:02:00,65.0,64.0,-100.00,NE,48,4.0,-999.0,96,0.03,,,-99.99,0.000000,,2013-04-22 03:02:00,
2013-04-21 23:11:00,65.0,64.0,-100.00,ENE,64,3.0,-999.0,96,0.00,,,-99.99,0.000000,,2013-04-22 03:11:00,
2013-04-21 23:22:00,65.0,64.0,-100.00,ENE,64,3.0,-999.0,96,0.00,,,-99.99,0.000000,,2013-04-22 03:22:00,
2013-04-21 23:33:00,65.0,64.0,-100.00,ENE,70,5.0,-999.0,96,0.00,,,-99.99,0.000000,,2013-04-22 03:33:00,
2013-04-21 23:43:00,66.0,65.0,-100.00,ENE,57,4.0,-999.0,96,0.00,,,-99.99,0.000000,,2013-04-22 03:43:00,
2013-04-21 23:53:00,66.0,65.0,-100.00,ENE,57,4.0,-999.0,96,0.00,,,-99.99,0.000000,,2013-04-22 03:53:00,